Location: Alston School (historical)
(35.5076°N, 89.8251°W)
Time: 20:05:55
(UTC+00:00)

Cosmos 2058 Rocket - Pass Details

Date: 14 March 2026
Orbit: 604 x 632 km, 82.5° (Epoch: 21 April)

Event Time Altitude Azimuth Distance (km) Brightness Sun altitude
Rises 00:38:24 0° 334° (NNW) 2,929 6.9 -7.6°
Reaches altitude 10° 00:41:14 10° 315° (NW) 2,013 6.4 -8.1°
Maximum altitude 00:44:14 18° 273° (W) 1,551 6.5 -8.7°
Drops below altitude 10° 00:47:12 10° 231° (SW) 1,995 6.4 -9.4°
Sets 00:50:00 0° 212° (SSW) 2,891 6.9 -9.9°
